#timestamp,LO_Frequency,Hit,StdDev 
1513720815.2,286047008.3,N
1513720835.1,286047009.0,N
1513720836.0,286047009.0,N
1513720855.8,286047006.5,N
1513720875.6,286047009.3,Y
1513720895.5,286047003.6,P
1513720915.3,286047003.9,P
1513720935.2,286047005.0,P
1513720955.9,286047006.0,Y
1513720975.7,286046999.4,P
1513720995.6,286046996.7,N
1513721015.4,286046999.4,N
1513721035.2,286046999.6,N
1513721055.1,286046996.7,N
1513721056.0,286046996.7,N
1513721075.8,286046997.2,N
1513721095.7,286046999.2,N
1513721115.5,286046999.4,N
1513721135.3,286046998.9,N
1513721155.2,286047000.0,N
1513721175.0,286047000.4,N
1513721175.9,286047000.4,N
1513721195.8,286047000.0,N
1513721215.6,286046998.5,N
1513721235.4,286046998.2,N
1513721255.3,286047000.7,N
1513721275.1,286047000.9,N
1513721295.9,286047000.7,N
1513721315.7,286046999.3,N
1513721365.6,286047002.2,E
1513721375.5,286047002.8,N
1513721395.3,286047000.6,P
1513721415.2,286047002.4,N
1513721435.9,286047002.0,N
1513721455.7,286047001.6,N
1513721475.6,286047002.6,Y
1513721495.4,286047001.1,P
1513721515.3,286047000.2,N
1513721535.1,286046998.1,N
1513721536.0,286046998.1,N
1513721555.8,286046999.8,N
1513721575.7,286046999.5,N
1513721595.5,286046997.1,N
1513721615.3,286046997.1,N
1513721635.2,286046996.8,N
1513721655.0,286046996.9,N
1513721655.9,286046996.9,N
1513721675.8,286046997.7,N
1513721725.6,286046992.7,E
1513721735.5,286046994.9,N
1513721755.4,286046998.3,P
1513721775.2,286046998.5,N
1513721795.1,286046999.6,N
1513721796.0,286046999.6,N
1513721815.8,286046999.3,N
1513721835.6,286046997.7,N
1513721855.5,286046995.5,N
1513721875.3,286046995.4,N
1513721895.2,286046997.1,N
1513721915.9,286047000.7,N
1513721935.7,286047000.6,N
1513721955.6,286046998.2,N
1513721975.4,286046998.5,N
1513721995.2,286046999.0,N
1513722015.1,286046999.2,N
1513722016.0,286046999.2,N
1513722035.8,286046999.6,N
1513722055.7,286046998.0,N
1513722075.5,286046995.8,N
1513722095.3,286046996.3,N
1513722115.2,286046996.0,N
1513722135.0,286046995.7,N
1513722135.9,286046995.7,N
1513722155.8,286046996.4,N
1513722175.6,286046997.5,N
1513722195.4,286046995.2,N
1513722215.3,286046996.2,N
1513722235.1,286046993.4,Y
1513722255.9,286046997.4,P
1513722275.7,286046997.1,P
1513722295.5,286046998.7,P
1513722315.4,286047002.8,Y
1513722335.2,286047005.6,P
1513722355.1,286047007.2,N
1513722356.0,286047007.2,N
1513722375.8,286047005.5,N
1513722395.6,286047003.3,N
1513722415.5,286047003.9,N
1513722435.3,286047001.3,N
1513722455.1,286047001.5,N
1513722475.9,286047003.1,N
1513722495.7,286047003.3,N
1513722515.6,286047003.0,N
1513722535.4,286047001.3,N
1513722555.2,286047002.7,N
1513722575.1,286047002.5,N
1513722576.0,286047002.5,N
1513722595.8,286047002.6,N
1513722615.7,286047002.7,N
1513722635.5,286047002.0,N
1513722655.3,286047000.2,N
1513722675.2,286047001.1,N
1513722695.0,286046998.3,N
1513722695.9,286046998.3,N
1513722715.8,286046999.2,N
1513722735.6,286046998.8,N
1513722755.4,286046999.4,N
1513722775.3,286046997.4,N
1513722795.1,286046997.7,N
1513722815.8,286046997.3,N
1513722835.7,286046995.0,N
1513722855.5,286046997.7,N
1513722875.4,286046996.7,N
1513722895.2,286046994.9,N
1513722915.0,286046996.3,N
1513722915.9,286046996.3,N
1513722935.8,286046996.1,N
1513722955.6,286046996.1,N
1513722975.5,286046995.3,N
1513722995.3,286046996.1,N
1513723015.1,286046996.3,N
1513723035.9,286046994.6,N
1513723055.7,286046994.0,N
1513723075.6,286046994.2,N
1513723095.4,286046994.1,N
1513723115.2,286046994.4,N
1513723135.1,286046993.2,N
1513723136.0,286046993.2,N
1513723155.8,286046993.0,N
1513723175.6,286046994.5,N
1513723195.5,286046992.9,Y
1513723215.3,286046996.3,P
1513723235.2,286046995.5,P
1513723255.0,286046997.2,P
1513723255.9,286046997.2,Y
1513723275.7,286047002.5,P
1513723295.6,286047004.0,N
1513723315.4,286047001.3,N
1513723335.3,286047001.8,N
1513723355.1,286047002.6,N
1513723356.0,286047002.6,N
1513723375.8,286047001.9,N
1513723395.7,286047004.0,N
1513723415.5,286047002.3,N
1513723435.4,286047001.8,N
1513723455.2,286047001.3,N
1513723475.0,286047001.5,N
1513723475.9,286047001.5,N
1513723495.8,286047002.2,N
1513723515.6,286047002.4,N
1513723535.4,286047002.1,N
1513723555.3,286047004.4,N
1513723575.1,286047002.5,N
1513723595.9,286047004.1,N
1513723615.7,286047005.5,Y
1513723635.5,286047002.3,P
1513723655.4,286047002.2,P
1513723675.2,286047003.8,P
1513723695.1,286047010.6,Y
1513723696.0,286047010.6,P
1513723715.8,286047006.9,N
1513723735.6,286047005.5,N
1513723755.5,286047010.4,Y
1513723775.3,286047001.4,P
1513723795.2,286047001.7,N
1513723815.9,286047002.4,N
1513723835.7,286047000.3,N
1513723855.6,286047000.6,N
1513723875.4,286047001.0,N
1513723895.3,286046996.5,N
1513723915.1,286046996.9,N
1513723916.0,286046996.9,N
1513723935.8,286046999.2,N
1513723955.7,286047000.7,N
1513723975.5,286046998.6,N
1513723995.3,286046999.4,N
1513724015.2,286046998.9,N
1513724035.0,286046998.4,N
1513724035.9,286046998.4,N
1513724055.8,286047000.3,N
1513724075.6,286047000.2,N
1513724095.4,286046999.2,N
1513724115.3,286046997.0,N
1513724135.1,286046996.5,N
1513724155.9,286047004.3,N
1513724175.7,286047004.8,N
1513724195.5,286047006.0,N
1513724215.4,286047007.0,N
1513724235.2,286047005.7,N
1513724255.0,286047003.3,N
1513724256.0,286047003.3,N
1513724275.8,286047003.4,N
1513724295.6,286047001.9,N
1513724315.5,286047000.1,N
1513724335.3,286047002.0,N
1513724355.1,286047004.0,N
1513724375.9,286047002.7,N
1513724395.7,286047000.0,N
